Wind_Speed
27 26 25 25 25 25 24 23 23 22 22 22 20 18 16 16 15 14 12 12 12 12 13 14 16 17 17 15 14 13 12 10 9 8 8 8 8 8 8 7 7 7
28 27 27 26 27 27 25 24 23 22 22 21 21 19 19 18 17 16 14 14 13 13 14 15 16 18 19 18 17 15 14 13 11 10 9 8 7 7 7 7 6 6
30 29 29 28 27 27 26 25 24 23 22 22 22 21 21 20 18 17 16 15 15 15 15 16 17 18 20 20 20 18 17 15 14 13 12 10 9 8 8 7 6 5
31 31 30 29 28 28 27 27 25 24 23 23 22 22 21 21 20 19 17 16 16 16 16 17 18 19 20 21 21 21 20 18 17 16 15 13 12 11 10 9 8 6
32 32 31 30 30 29 29 29 27 25 24 23 23 22 22 22 21 20 18 17 16 16 17 17 18 19 20 21 21 22 22 21 20 19 17 16 15 14 12 11 9 8
34 33 32 32 31 31 31 30 28 27 25 24 23 23 23 23 22 21 19 17 16 16 17 17 18 20 20 21 22 22 22 22 22 22 20 18 17 17 15 14 12 11
35 34 34 33 33 33 33 31 30 28 27 25 25 24 24 23 23 22 20 18 16 16 16 17 18 19 20 21 22 22 22 23 23 24 22 21 20 19 18 17 15 14
35 35 35 35 35 34 34 33 31 30 28 27 26 25 24 24 23 23 22 20 18 16 16 17 17 18 20 21 22 22 23 23 24 24 24 23 22 21 20 19 18 17
36 36 35 36 36 35 35 33 32 31 30 29 27 26 25 25 24 24 23 22 20 18 17 17 18 18 19 20 21 21 22 23 23 24 24 24 24 23 22 22 21 20
36 36 36 36 36 36 35 34 33 32 31 30 28 27 27 26 25 25 24 24 22 20 19 18 18 18 19 20 20 21 21 22 23 24 25 25 25 25 25 25 24 23
37 36 37 37 36 36 35 34 33 33 32 30 29 28 27 27 26 26 25 24 23 21 20 19 18 19 19 19 19 20 21 21 23 24 25 25 25 26 26 26 26 25
37 37 37 37 36 36 35 34 34 33 32 31 30 29 28 27 27 26 25 25 23 22 21 20 19 19 19 19 19 19 20 21 22 22 23 24 24 25 26 26 26 26
36 36 36 36 36 36 35 35 34 34 33 31 30 30 29 28 27 26 26 25 24 23 22 21 20 20 19 19 19 19 19 20 20 21 21 22 22 23 24 25 26 26
34 34 34 35 35 35 35 35 35 34 33 32 31 30 29 28 27 26 26 25 25 24 23 23 22 21 20 20 19 18 18 18 19 19 19 20 20 20 21 22 24 24
31 31 32 33 34 35 35 35 35 34 33 33 31 30 29 28 28 27 27 26 25 25 25 24 24 22 21 20 19 18 18 17 17 17 17 17 18 18 19 20 20 21
29 29 31 32 33 34 34 33 33 33 33 32 31 29 29 28 28 28 27 26 26 25 25 25 24 22 20 20 19 19 18 18 17 17 16 16 16 17 18 18 18 19
29 29 30 31 31 31 31 31 31 31 32 31 30 30 29 29 28 28 27 26 26 26 26 25 23 21 20 20 19 19 19 18 17 17 16 16 16 16 16 16 16 17
28 28 29 29 28 28 28 28 29 30 30 30 30 29 29 29 28 28 27 27 26 26 25 24 22 20 20 20 20 20 19 19 18 17 17 17 16 16 16 16 16 17
27 27 27 26 26 25 26 27 28 28 28 28 29 29 29 29 28 27 27 26 26 24 23 21 20 19 20 20 20 20 20 20 19 19 19 18 17 17 17 17 17 18
24 25 25 25 25 26 26 27 27 26 27 27 28 28 28 28 27 27 26 26 25 23 22 20 19 19 19 20 20 21 21 21 21 21 20 20 19 19 19 19 19 20
23 23 23 24 25 26 27 27 27 27 27 27 27 28 27 27 27 27 26 25 25 24 23 21 19 19 20 21 21 21 22 23 23 23 23 22 21 21 21 21 21 22
25 24 24 23 24 25 27 28 28 28 27 27 28 28 27 27 28 27 26 26 25 25 25 22 20 20 21 21 22 23 24 24 24 24 25 24 23 23 22 22 22 22
29 28 27 26 26 25 25 25 26 26 27 27 28 28 27 27 27 26 26 26 26 26 25 22 21 21 22 22 23 24 25 25 25 25 26 26 24 24 22 21 20 19
30 30 30 30 30 28 27 26 25 24 25 26 27 27 27 26 26 26 26 26 26 25 24 22 21 22 23 24 24 25 26 26 26 27 28 27 24 22 20 18 17 16
27 29 29 30 31 31 30 29 28 27 26 26 26 26 26 27 27 27 26 26 25 24 23 22 21 22 24 25 25 26 27 27 28 29 28 25 21 19 18 17 17 17
24 25 27 28 29 29 29 30 30 30 30 29 28 27 27 27 27 27 26 26 25 24 24 23 22 23 24 25 26 27 28 28 28 27 24 21 20 19 19 19 20 20
Wind_Direction
205 204 202 202 203 204 206 207 209 212 218 223 226 228 228 226 225 223 221 220 218 216 216 214 212 209 207 205 202 199 196 193 187 176 162 153 146 142 139 134 126 116
206 204 202 202 203 205 207 207 208 211 215 219 223 226 228 229 227 224 223 223 222 220 219 218 216 214 212 211 210 209 209 209 208 202 194 188 179 170 163 156 149 137
206 204 203 203 203 205 207 209 210 211 213 216 220 223 227 229 227 224 223 222 222 222 221 220 218 217 216 216 216 217 218 220 220 217 214 212 206 200 193 182 175 166
206 206 205 204 204 206 208 210 211 211 213 216 219 222 226 228 228 226 223 221 220 221 223 223 221 220 219 220 220 221 223 226 228 226 223 222 221 219 216 206 199 196
208 207 206 205 205 206 209 211 212 212 213 215 218 221 224 228 231 231 227 224 221 221 223 223 224 223 222 222 223 223 225 228 231 233 230 228 228 227 227 223 218 216
210 209 209 208 207 208 210 212 212 213 213 214 216 219 222 226 232 234 233 230 225 224 224 224 224 226 225 225 225 224 225 227 231 234 234 233 232 231 231 231 229 228
212 211 211 210 210 210 212 212 213 213 214 215 216 218 220 224 229 234 237 235 231 228 227 226 225 226 228 229 228 226 226 227 230 233 235 236 237 236 235 235 234 234
214 214 213 213 213 213 213 213 214 214 215 216 217 217 220 223 227 231 235 237 235 231 229 229 227 225 227 230 230 229 228 229 231 233 235 237 239 240 240 241 239 237
216 215 215 215 215 215 215 215 215 215 216 217 218 218 219 222 224 227 231 235 235 233 230 230 229 227 227 229 230 230 229 230 232 234 236 237 238 240 242 244 243 240
217 217 217 218 217 217 217 216 217 217 218 219 219 220 221 221 223 225 228 232 235 234 231 230 230 230 229 229 230 231 230 230 231 233 235 237 239 240 241 243 244 242
218 218 219 220 220 219 218 218 218 219 219 220 221 222 223 223 224 225 228 233 236 237 236 233 232 232 232 231 230 231 232 231 231 232 234 236 238 240 242 244 245 244
220 220 221 221 221 221 220 219 219 220 221 222 223 224 224 225 225 226 230 234 236 239 240 238 236 235 233 232 230 230 230 231 231 232 233 235 236 239 241 244 246 247
221 222 223 223 223 223 222 221 221 221 222 223 224 225 226 226 227 228 231 233 236 239 241 241 240 238 235 233 231 229 228 229 230 232 233 234 235 237 239 242 244 246
222 224 225 225 225 225 224 223 223 222 222 224 225 226 227 228 229 230 231 233 235 238 240 241 241 240 236 234 232 231 230 229 230 231 232 233 234 236 238 240 241 243
222 224 225 225 225 225 225 225 225 224 224 224 226 228 229 230 231 231 232 233 235 237 239 241 242 242 239 235 233 233 233 232 230 230 231 231 232 233 235 237 239 241
221 222 224 224 225 225 226 226 226 225 226 226 228 229 230 231 231 232 233 234 235 237 239 240 241 241 239 236 233 232 232 232 231 230 231 230 230 230 232 236 238 240
219 220 221 222 223 224 225 226 227 226 227 227 228 230 231 231 232 233 234 235 236 237 238 239 239 238 236 234 232 231 231 231 231 231 231 231 232 233 234 237 240 241
217 218 220 221 222 223 224 225 226 227 227 227 228 230 231 233 234 235 236 237 238 238 238 238 236 233 231 230 229 229 229 230 231 231 232 234 236 238 239 240 242 243
216 217 218 219 220 221 223 224 226 227 227 228 229 231 232 234 235 237 237 238 238 238 236 235 231 227 226 226 226 227 228 231 232 232 233 235 237 239 241 243 244 245
213 216 217 218 219 220 222 224 225 227 228 229 230 231 232 234 235 236 237 237 237 237 235 233 228 224 224 224 224 226 228 231 233 234 235 236 237 239 242 244 247 248
213 215 217 218 220 221 223 225 225 227 227 228 230 231 232 234 235 235 235 235 235 235 235 233 229 226 226 226 226 228 230 233 235 236 238 239 240 242 244 246 248 250
219 220 220 220 221 223 225 226 227 228 229 230 232 233 234 234 235 236 236 235 236 236 236 235 232 229 229 228 228 230 232 234 236 238 242 243 244 245 247 248 248 249
223 224 225 224 225 225 226 228 229 231 232 234 235 236 237 237 238 239 240 239 239 238 239 238 233 231 231 230 229 230 232 234 237 240 243 245 245 246 247 245 243 243
223 225 227 228 229 230 230 230 231 232 234 236 237 239 240 240 241 242 242 242 241 240 240 238 233 230 230 229 228 229 231 234 237 239 242 243 244 243 241 239 239 243
221 224 226 229 231 232 232 233 233 233 234 236 237 238 239 240 241 240 240 240 240 239 239 236 231 228 227 227 227 228 230 233 235 237 239 240 240 239 241 246 250 254
220 222 223 226 228 230 232 233 233 233 234 235 236 237 238 238 239 239 239 239 238 237 235 233 229 227 226 225 225 225 226 228 231 234 235 237 240 245 249 255 259 263
Height
3200 3202 3204 3207 3209 3210 3212 3214 3217 3218 3220 3222 3224 3226 3227 3228 3229 3230 3231 3232 3233 3235 3236 3236 3237 3238 3239 3240 3241 3242 3243 3244 3245 3245 3246 3246 3246 3246 3247 3247 3247 3248
3198 3200 3203 3205 3207 3209 3211 3213 3215 3217 3219 3221 3223 3224 3225 3226 3227 3228 3230 3231 3232 3233 3234 3235 3236 3237 3238 3239 3240 3241 3242 3243 3244 3245 3246 3246 3246 3247 3247 3247 3248 3248
3196 3198 3200 3203 3205 3207 3209 3211 3213 3215 3217 3219 3221 3222 3224 3225 3226 3227 3228 3229 3230 3232 3233 3234 3235 3236 3237 3238 3239 3240 3241 3242 3243 3244 3245 3245 3246 3246 3247 3247 3248 3248
3194 3196 3198 3201 3203 3205 3207 3209 3211 3213 3215 3217 3219 3221 3222 3223 3224 3225 3226 3228 3229 3230 3231 3232 3234 3235 3236 3237 3238 3239 3240 3241 3242 3243 3244 3245 3245 3246 3247 3247 3247 3248
3192 3194 3197 3199 3201 3203 3205 3206 3209 3211 3213 3216 3218 3219 3220 3221 3223 3224 3225 3226 3227 3228 3229 3231 3232 3233 3234 3235 3236 3238 3239 3240 3240 3241 3242 3244 3244 3245 3246 3246 3247 3247
3190 3192 3195 3197 3199 3201 3202 3204 3207 3209 3211 3214 3215 3217 3218 3220 3221 3222 3223 3224 3226 3227 3228 3229 3230 3231 3233 3234 3235 3236 3237 3238 3239 3240 3241 3242 3243 3244 3245 3245 3246 3247
3187 3190 3192 3194 3196 3198 3200 3202 3204 3206 3209 3211 3213 3214 3216 3218 3219 3221 3222 3223 3224 3225 3226 3227 3228 3230 3231 3232 3233 3234 3235 3237 3237 3238 3239 3241 3242 3242 3243 3244 3245 3246
3185 3187 3190 3192 3194 3196 3198 3200 3202 3204 3206 3208 3210 3212 3214 3216 3217 3219 3220 3221 3222 3223 3224 3225 3226 3227 3228 3230 3231 3232 3234 3235 3235 3237 3238 3239 3240 3241 3242 3243 3244 3244
3182 3185 3187 3189 3191 3193 3195 3198 3200 3202 3203 3205 3208 3210 3211 3213 3215 3217 3218 3219 3220 3221 3222 3223 3224 3225 3226 3227 3229 3230 3231 3233 3234 3235 3236 3237 3238 3239 3240 3241 3241 3243
3180 3182 3184 3186 3188 3191 3193 3196 3198 3199 3201 3203 3205 3207 3209 3211 3212 3214 3215 3216 3218 3219 3220 3222 3223 3223 3224 3225 3227 3228 3229 3230 3231 3232 3233 3234 3236 3237 3238 3238 3239 3240
3177 3180 3182 3184 3186 3188 3191 3193 3195 3197 3199 3201 3203 3204 3206 3208 3210 3211 3213 3214 3216 3217 3219 3220 3221 3222 3222 3223 3225 3226 3227 3228 3229 3230 3231 3232 3233 3234 3235 3236 3237 3238
3175 3177 3179 3182 3184 3186 3189 3191 3193 3195 3197 3199 3200 3202 3204 3206 3208 3209 3211 3212 3214 3216 3217 3218 3219 3220 3220 3221 3222 3223 3224 3226 3227 3228 3229 3230 3231 3232 3233 3234 3235 3236
3172 3175 3177 3180 3182 3184 3186 3188 3190 3192 3194 3196 3198 3200 3202 3204 3205 3207 3209 3210 3212 3213 3215 3216 3217 3218 3218 3219 3220 3221 3222 3223 3224 3225 3226 3227 3229 3229 3230 3231 3232 3233
3170 3173 3175 3178 3180 3182 3184 3186 3188 3190 3192 3194 3196 3197 3199 3201 3203 3205 3206 3208 3209 3211 3212 3213 3214 3215 3216 3217 3218 3219 3220 3221 3223 3223 3224 3225 3226 3227 3228 3229 3229 3230
3168 3170 3173 3175 3177 3179 3181 3183 3186 3188 3190 3192 3193 3195 3197 3199 3201 3202 3204 3205 3207 3208 3209 3211 3212 3213 3214 3216 3217 3217 3218 3220 3221 3221 3222 3223 3224 3225 3225 3226 3227 3228
3166 3168 3170 3172 3174 3176 3179 3181 3183 3186 3187 3189 3191 3193 3195 3197 3198 3200 3201 3203 3204 3205 3207 3208 3209 3211 3212 3214 3215 3216 3216 3217 3218 3219 3220 3221 3222 3222 3223 3224 3225 3225
3163 3165 3167 3169 3172 3174 3176 3179 3181 3183 3185 3187 3189 3191 3192 3194 3196 3197 3198 3200 3201 3202 3204 3205 3207 3209 3210 3212 3212 3213 3214 3215 3216 3217 3218 3219 3219 3220 3221 3222 3222 3223
3161 3163 3165 3167 3170 3172 3174 3176 3178 3180 3182 3184 3186 3188 3190 3192 3193 3194 3196 3197 3199 3200 3201 3203 3205 3207 3208 3209 3210 3211 3212 3213 3214 3215 3215 3216 3217 3218 3218 3219 3220 3221
3159 3161 3163 3166 3168 3170 3172 3174 3176 3178 3180 3182 3184 3186 3187 3189 3190 3192 3193 3195 3196 3197 3199 3200 3202 3204 3205 3207 3208 3209 3210 3210 3211 3212 3213 3214 3214 3215 3216 3217 3217 3218
3157 3159 3161 3164 3166 3168 3170 3171 3173 3175 3177 3179 3181 3183 3184 3186 3188 3189 3191 3192 3194 3195 3196 3198 3200 3202 3203 3204 3205 3206 3207 3208 3209 3209 3210 3211 3212 3213 3213 3214 3215 3215
3155 3157 3159 3161 3163 3165 3167 3169 3171 3173 3175 3176 3178 3180 3181 3183 3185 3187 3188 3190 3191 3193 3194 3195 3197 3199 3201 3202 3203 3204 3205 3205 3206 3206 3207 3208 3209 3210 3211 3212 3212 3213
3153 3155 3157 3159 3161 3163 3164 3166 3168 3170 3172 3174 3175 3177 3179 3180 3182 3184 3186 3187 3189 3190 3191 3193 3195 3197 3198 3199 3200 3201 3202 3202 3203 3204 3204 3205 3207 3208 3208 3209 3210 3210
3151 3153 3155 3157 3159 3160 3162 3164 3166 3168 3170 3171 3172 3174 3176 3178 3179 3181 3183 3185 3186 3187 3189 3190 3193 3194 3195 3197 3198 3198 3199 3200 3201 3201 3202 3202 3204 3205 3206 3206 3207 3208
3148 3150 3152 3154 3155 3157 3159 3162 3163 3165 3167 3168 3170 3171 3173 3175 3177 3179 3180 3181 3183 3185 3186 3188 3190 3191 3192 3193 3195 3196 3196 3197 3198 3198 3199 3200 3201 3203 3203 3204 3205 3206
3145 3147 3149 3151 3152 3154 3157 3159 3161 3163 3164 3165 3167 3168 3170 3172 3174 3175 3177 3178 3180 3182 3183 3185 3187 3188 3189 3190 3191 3193 3193 3194 3195 3195 3196 3198 3199 3200 3201 3202 3203 3203
3143 3144 3146 3148 3150 3152 3154 3155 3157 3159 3161 3162 3164 3166 3167 3169 3171 3172 3174 3175 3177 3179 3180 3182 3184 3185 3186 3187 3188 3189 3190 3191 3192 3193 3194 3196 3197 3198 3198 3199 3199 3200